Regional Weather Roundup
Issued by NWS Albany, NY

Home | Current Version | Previous Version | Text Only | Print | Product List | Glossary On
Versions: 1 2 3 4 5 6 7 8 9 10 11 12 13 14 15 16 17 18 19 20 21 22 23 24 25 26 27 28 29 30 31 32 33 34 35 36 37 38 39 40 41 42 43 44 45 46 47 48 49 50
000
ASUS41 KALY 021410
RWRALY

NEW YORK STATE HOURLY WEATHER ROUNDUP
NATIONAL WEATHER SERVICE ALBANY NY
1000 AM EDT SUN AUG 02 2015

NOTE: "FAIR" INDICATES FEW OR NO CLOUDS BELOW 12,000 FEET WITH NO
SIGNIFICANT WEATHER AND/OR NO OBSTRUCTIONS TO VISIBILITY.

NYZ032-033-038>043-046>054-057>066-NYZ062>081-021500-
EAST


CITY           SKY/WX    TMP DP  RH WIND       PRES   REMARKS
ALBANY         MOSUNNY   75  57  53 SE5       29.90S
GLENS FALLS    SUNNY     70  59  68 S8        29.89R
POUGHKEEPSIE   SUNNY     77  57  50 SW6       29.92R
NEWBURGH       SUNNY     75  61  60 W6        29.95R
MONTGOMERY     SUNNY     76  61  59 S7        29.93S
WHITE PLAINS   SUNNY     78  57  48 SE6       29.94R
ISLIP          MOSUNNY   81  57  43 SE7       29.91S
NEW YORK CITY  MOSUNNY   81  57  43 NE6       29.92R
CENTRAL PARK   SUNNY     80  58  46 CALM      29.95S
$$

NYZ005>009-017-018-044>046-055-056-021500-
CENTRAL


CITY           SKY/WX    TMP DP  RH WIND       PRES   REMARKS
FULTON         SUNNY     75  62  64 VRB3      29.87S
SYRACUSE       PTSUNNY   75  62  64 VRB3      29.88R
ROME           SUNNY     71  58  63 CALM      29.90S
ELMIRA         SUNNY     72  58  61 SW9       29.90F
BINGHAMTON     SUNNY     69  57  65 SW8       29.94R
MONTICELLO     SUNNY     72  57  60 MISG      29.97S
$$

NYZ026>034-041>043-021500-
NORTH


CITY           SKY/WX    TMP DP  RH WIND       PRES   REMARKS
WATERTOWN      MOSUNNY   73  63  70 W8        29.85S
FORT DRUM      NOT AVBL
MASSENA        MOSUNNY   71  61  70 SW12      29.84S
SARANAC LAKE   MOSUNNY   66  59  78 SW9       29.89R
PLATTSBURGH    MOSUNNY   73  62  68 SE7       29.84S
$$

NYZ001>004-010>016-019>021-021500-
WEST


CITY           SKY/WX    TMP DP  RH WIND       PRES   REMARKS
NIAGARA FALLS  PTSUNNY   73  60  63 SW12      29.86S
BUFFALO        PTSUNNY   75  58  55 SW18G25   29.87S
DUNKIRK        SUNNY     75  61  61 SW12      29.90S
JAMESTOWN      SUNNY     70  57  64 SW8       29.96R
WELLSVILLE     SUNNY     71  54  54 W8        29.97S
ROCHESTER      PTSUNNY   74  61  63 SW10      29.87S
PENN YAN       SUNNY     74  59  59 SW8       29.90S
$$

             KEY
       WCI = WIND CHILL INDEX
       VSB = VISIBILITY
       HX  = HEAT INDEX
$$


USA.gov is the U.S. government's official web portal to all federal, state and local government web resources and services.